Weather History for KMMH - May, 2013

Change the Weather History Date:

Monday, May 13, 2013

  Actual Average (KBIH) Record (KBIH)
Temperature  
Mean Temperature 54 °F 63 °F  
Max Temperature 75 °F 82 °F 94 °F (2013)
Min Temperature 33 °F 44 °F 32 °F (2010)
Degree Days  
Heating Degree Days 11 4  
Month to date heating degree days 68  
Since 1 July heating degree days 4110  
Cooling Degree Days 0 2  
Month to date cooling degree days 12  
Year to date cooling degree days 16  
Growing Degree Days 4 (Base 50)    
Moisture  
Dew Point 29 °F    
Average Humidity 39    
Maximum Humidity 87    
Minimum Humidity 14    
Precipitation  
Precipitation 0.00 in 0.01 in 0.21 in (1998)
Month to date precipitation 0.07  
Year to date precipitation 2.76  
Snow  
Snow 0.00 in 0.00 in T in (1998)
Month to date snowfall 0.0  
Since 1 July snowfall 6.8  
Snow Depth -    
Sea Level Pressure  
Sea Level Pressure 30.33 in    
Wind  
Wind Speed 4 mph (SW)    
Max Wind Speed 18 mph    
Max Gust Speed 36 mph    
Visibility 10 miles    
Events      
T = Trace of Precipitation, MM = Missing Value Source: NWS Daily Summary

Daily Weather History Graph

Daily Weather History Graph

Search for Another Location

Airport or City:

Trip Planner

Search our weather history database for the weather conditions in past years. The results will help you decide how hot, cold, wet, or windy it might be!

Date:

Astronomy

May. 13, 2013 Rise Set
Actual Time 5:47 AM PDT 7:56 PM PDT
Civil Twilight 5:18 AM PDT 8:25 PM PDT
Nautical Twilight 4:42 AM PDT 9:01 PM PDT
Astronomical Twilight 4:03 AM PDT 9:40 PM PDT
Moon 8:37 AM PDT (5/13) 11:09 PM PDT (5/13)
Length of Visible Light 15h 07m
Length of Day
14h 09m
Waxing Crescent, 13% of the Moon is Illuminated
May 13
Waxing Crescent
May 17
First Quarter
May 24
Full
May 31
Last Quarter
Jun 8
New

Hourly Weather History & Observations

Time (PDT) Temp. Windchill Dew Point Humidity Pressure Visibility Wind Dir Wind Speed Gust Speed Precip Events Conditions
12:15 AM 46.4 °F - 33.8 °F 62% 30.37 in 10.0 mi Calm Calm - N/A   Clear
12:35 AM 44.6 °F - 32.0 °F 61% 30.37 in 10.0 mi North - - N/A   Clear
12:55 AM 42.8 °F - 32.0 °F 66% 30.37 in 10.0 mi North - - N/A   Clear
1:15 AM 44.6 °F - 33.8 °F 66% 30.37 in 10.0 mi Calm Calm - N/A   Clear
1:35 AM 41.0 °F 39.0 °F 30.2 °F 65% 30.36 in 10.0 mi North 3.5 mph - N/A   Clear
1:55 AM 41.0 °F - 32.0 °F 70% 30.36 in 10.0 mi Calm Calm - N/A   Clear
2:15 AM 39.2 °F - 32.0 °F 75% 30.35 in 10.0 mi Calm Calm - N/A   Clear
2:35 AM 42.8 °F - 33.8 °F 70% 30.35 in 10.0 mi North - - N/A   Clear
2:55 AM 39.2 °F 37.0 °F 30.2 °F 70% 30.35 in 10.0 mi West 3.5 mph - N/A   Clear
3:15 AM 37.4 °F - 30.2 °F 75% 30.35 in 10.0 mi Calm Calm - N/A   Clear
3:35 AM 35.6 °F 31.7 °F 30.2 °F 81% 30.35 in 10.0 mi WNW 4.6 mph - N/A   Clear
3:55 AM 35.6 °F 31.7 °F 30.2 °F 81% 30.34 in 10.0 mi NW 4.6 mph - N/A   Clear
4:15 AM 35.6 °F 31.7 °F 28.4 °F 75% 30.35 in 10.0 mi WNW 4.6 mph - N/A   Clear
4:35 AM 37.4 °F 34.9 °F 32.0 °F 81% 30.34 in 10.0 mi North 3.5 mph - N/A   Clear
4:55 AM 37.4 °F 32.1 °F 30.2 °F 75% 30.34 in 10.0 mi WNW 6.9 mph - N/A   Clear
5:15 AM 41.0 °F - 32.0 °F 70% 30.34 in 10.0 mi Calm Calm - N/A   Clear
5:35 AM 37.4 °F 33.8 °F 30.2 °F 75% 30.35 in 10.0 mi WNW 4.6 mph - N/A   Clear
5:55 AM 35.6 °F - 30.2 °F 81% 30.35 in 10.0 mi Calm Calm - N/A   Clear
6:15 AM 33.8 °F 30.8 °F 30.2 °F 87% 30.36 in 10.0 mi WNW 3.5 mph - N/A   Clear
6:35 AM 39.2 °F 35.0 °F 32.0 °F 75% 30.36 in 10.0 mi NW 5.8 mph - N/A   Clear
6:55 AM 42.8 °F - 33.8 °F 70% 30.37 in 10.0 mi Calm Calm - N/A   Clear
7:15 AM 50.0 °F - 35.6 °F 58% 30.37 in 10.0 mi Calm Calm - N/A   Clear
7:35 AM 55.4 °F - 35.6 °F 47% 30.37 in 10.0 mi Calm Calm - N/A   Clear
7:55 AM 59.0 °F - 35.6 °F 42% 30.37 in 10.0 mi Calm Calm - N/A   Clear
8:15 AM 59.0 °F - 39.2 °F 48% 30.37 in 10.0 mi SE 6.9 mph - N/A   Clear
8:35 AM 60.8 °F - 35.6 °F 39% 30.37 in 10.0 mi Calm Calm - N/A   Clear
8:55 AM 64.4 °F - 33.8 °F 32% 30.37 in 10.0 mi SSE 5.8 mph - N/A   Clear
9:15 AM 66.2 °F - 33.8 °F 30% 30.37 in 10.0 mi SE 5.8 mph - N/A   Clear
9:35 AM 68.0 °F - 30.2 °F 24% 30.37 in 10.0 mi South 8.1 mph 20.7 mph N/A   Clear
9:55 AM 69.8 °F - 26.6 °F 20% 30.38 in 10.0 mi South 8.1 mph 23.0 mph N/A   Clear
10:15 AM 69.8 °F - 26.6 °F 20% 30.37 in 10.0 mi North - - N/A   Clear
10:35 AM 71.6 °F - 26.6 °F 19% 30.37 in 10.0 mi South 10.4 mph 16.1 mph N/A   Clear
10:55 AM 71.6 °F - 26.6 °F 19% 30.37 in 10.0 mi SSW 9.2 mph 23.0 mph N/A   Clear
11:15 AM 71.6 °F - 26.6 °F 19% 30.37 in 10.0 mi North - - N/A   Clear
11:35 AM 71.6 °F - 26.6 °F 19% 30.38 in 10.0 mi North - - N/A   Clear
11:55 AM 73.4 °F - 24.8 °F 16% 30.37 in 10.0 mi SSW 15.0 mph 24.2 mph N/A   Clear
12:15 PM 73.4 °F - 26.6 °F 18% 30.37 in 10.0 mi North - - N/A   Scattered Clouds
12:35 PM 75.2 °F - 23.0 °F 14% 30.36 in 10.0 mi North - - N/A   Clear
1:35 PM 75.2 °F - 23.0 °F 14% 30.35 in 10.0 mi North - - N/A   Clear
1:55 PM 75.2 °F - 23.0 °F 14% 30.35 in 10.0 mi North - - N/A   Clear
2:15 PM 75.2 °F - 23.0 °F 14% 30.34 in 10.0 mi North - - N/A   Clear
2:35 PM 75.2 °F - 23.0 °F 14% 30.34 in 10.0 mi SSW 5.8 mph 35.7 mph N/A   Clear
2:55 PM 75.2 °F - 24.8 °F 15% 30.34 in 10.0 mi West 13.8 mph 17.3 mph N/A   Clear
3:15 PM 75.2 °F - 24.8 °F 15% 30.34 in 10.0 mi SW 17.3 mph 28.8 mph N/A   Clear
3:35 PM 75.2 °F - 24.8 °F 15% 30.33 in 10.0 mi SW 17.3 mph 24.2 mph N/A   Clear
3:55 PM 75.2 °F - 24.8 °F 15% 30.32 in 10.0 mi North - - N/A   Clear
4:35 PM 73.4 °F - 24.8 °F 16% 30.31 in 10.0 mi SSW 15.0 mph - N/A   Clear
5:15 PM 71.6 °F - 24.8 °F 17% 30.30 in 10.0 mi SW 15.0 mph - N/A   Clear
5:35 PM 71.6 °F - 24.8 °F 17% 30.29 in 10.0 mi SW 18.4 mph 26.5 mph N/A   Clear
5:55 PM 71.6 °F - 26.6 °F 19% 30.29 in 10.0 mi North - - N/A   Clear
6:15 PM 69.8 °F - 26.6 °F 20% 30.28 in 10.0 mi SW 10.4 mph - N/A   Clear
6:35 PM 69.8 °F - 26.6 °F 20% 30.27 in 10.0 mi North - - N/A   Clear
6:55 PM 68.0 °F - 26.6 °F 21% 30.27 in 10.0 mi SW 16.1 mph - N/A   Clear
7:15 PM 68.0 °F - 26.6 °F 21% 30.26 in 10.0 mi North - - N/A   Clear
7:35 PM 66.2 °F - 26.6 °F 23% 30.26 in 10.0 mi SSW 17.3 mph - N/A   Clear
7:55 PM 64.4 °F - 26.6 °F 24% 30.26 in 10.0 mi North - - N/A   Clear
8:15 PM 64.4 °F - 26.6 °F 24% 30.26 in 10.0 mi North - - N/A   Clear
8:35 PM 64.4 °F - 26.6 °F 24% 30.26 in 10.0 mi North - - N/A   Clear
8:55 PM 62.6 °F - 28.4 °F 27% 30.27 in 10.0 mi North - - N/A   Clear
9:15 PM 62.6 °F - 28.4 °F 27% 30.27 in 10.0 mi North - - N/A   Clear
9:35 PM 62.6 °F - 28.4 °F 27% 30.27 in 10.0 mi North - - N/A   Clear
9:55 PM 62.6 °F - 28.4 °F 27% 30.27 in 10.0 mi North - - N/A   Clear
10:15 PM 62.6 °F - 28.4 °F 27% 30.27 in 10.0 mi North - - N/A   Clear
10:35 PM 62.6 °F - 28.4 °F 27% 30.26 in 10.0 mi North - - N/A   Clear
10:55 PM 62.6 °F - 26.6 °F 26% 30.26 in 10.0 mi North - - N/A   Clear
11:15 PM 60.8 °F - 28.4 °F 29% 30.25 in 10.0 mi North - - N/A   Clear
11:35 PM 60.8 °F - 28.4 °F 29% 30.25 in 10.0 mi North - - N/A   Clear
11:55 PM 57.2 °F - 28.4 °F 33% 30.25 in 10.0 mi Calm Calm - N/A   Clear